AO-07 1 07530U 74089B 26119.63941397 -.00000025 00000-0 13691-3 0 9995 2 07530 101.9927 132.3762 0011985 222.4688 259.8271 12.53697357354437 UO-11 1 14781U 84021B 26119.82574549 .00001396 00000-0 14801-3 0 9995 2 14781 97.8024 85.9561 0007419 356.4342 3.6822 14.90666173249925 AO-27 1 22825U 93061C 26119.68222587 .00000111 00000-0 59147-4 0 9990 2 22825 98.6901 187.1073 0007422 238.3923 121.6536 14.30928740700061 FO-29 1 24278U 96046B 26119.88277807 .00000013 00000-0 50174-4 0 9999 2 24278 98.5297 335.3560 0349160 221.6676 135.7381 13.53271906466633 GO-32 1 25397U 98043D 26119.87753258 .00000069 00000-0 49825-4 0 9991 2 25397 99.0062 111.4215 0001635 36.8582 323.2708 14.24418656444453 ISS 1 25544U 98067A 26119.68381909 .00007324 00000-0 14081-3 0 9996 2 25544 51.6318 180.1788 0007117 4.9077 355.1979 15.49024031564230 NO-44 1 26931U 01043C 26119.82597926 .00000159 00000-0 90311-4 0 9999 2 26931 67.0526 9.3554 0006470 263.9814 96.0550 14.31936890283524 SO-50 1 27607U 02058C 26119.60224970 .00001351 00000-0 17631-3 0 9997 2 27607 64.5517 279.2922 0075609 271.2999 87.9446 14.82938270257254 CO-55 1 27844U 03031E 26119.56554426 .00000333 00000-0 16331-3 0 9994 2 27844 98.6755 128.7341 0008924 333.6679 26.4045 14.24304800184755 RS-22 1 27939U 03042A 26119.86898809 .00001013 00000-0 16448-3 0 9995 2 27939 98.3466 302.8665 0012490 64.3826 42.6760 14.73379529208435 CO-65 1 32785U 08021C 26119.84880454 .00005087 00000-0 32583-3 0 9990 2 32785 97.8249 100.2880 0008774 181.6436 178.4765 15.08986045977906 CO-66 1 32791U 08021J 26119.53678457 .00018228 00000-0 60903-3 0 9999 2 32791 97.7522 115.1790 0005058 109.8166 250.3620 15.31067463979840 RS-30 1 32953U 08025A 26119.81161225 .00000021 00000-0 77490-4 0 9996 2 32953 82.5080 25.5280 0020613 57.7582 302.5493 12.43177694813681 SRMSAT 1 37841U 11058D 26119.32246926 .00000425 00000-0 87047-4 0 9992 2 37841 19.9736 355.2378 0011735 26.7876 133.2649 14.11564008750905 ZACUBE-1 1 39417U 13066B 26119.87617661 .00005751 00000-0 44875-3 0 9990 2 39417 97.8124 81.9531 0043751 55.0204 305.5115 15.00788638673484 Delfi-N3xt 1 39428U 13066N 26119.51258482 .00009326 00000-0 82157-3 0 9992 2 39428 97.8350 39.8889 0075729 10.1438 350.1289 14.94469334667354 GOMX-1 1 39430U 13066Q 26119.83579727 .00001705 00000-0 26302-3 0 9991 2 39430 97.6523 323.3448 0127666 232.4649 126.4903 14.69273757662817 LO-74 1 39440U 13066AA 26119.75968066 .00002891 00000-0 27214-3 0 9991 2 39440 97.8879 68.5580 0057636 186.4022 173.6468 14.93416196669765 AO-73 1 39444U 13066AE 26119.85397479 .00010286 00000-0 64730-3 0 9991 2 39444 97.8250 90.3239 0037122 11.3882 348.8178 15.08818068672370 DTUSAT-2 1 40030U 14033W 26119.22016196 .00006709 00000-0 36949-3 0 9990 2 40030 98.0859 113.8665 0009259 51.3730 308.8328 15.14356038645274 LILACSAT-2 1 40908U 15049K 26119.80822514 .00017330 00000-0 31205-3 0 9997 2 40908 97.4721 154.8536 0008668 76.1497 284.0718 15.49837652588255 Horyu-4 1 41340U 16012D 26119.57002031 .00139840 00000-0 91961-3 0 9993 2 41340 30.9891 69.2594 0006349 272.0329 87.9599 15.74131426563102 Lapan A3 1 41603U 16040E 26119.82136308 .00003969 00000-0 12754-3 0 9994 2 41603 97.1485 117.5702 0010231 178.0968 182.0316 15.32786120547405 CAS-2T 1 41847U 16066G 26119.82465100 .00000664 00000-0 10360-3 0 9997 2 41847 98.3830 196.1065 0340923 276.3336 79.9138 14.44572094497812 TechnoSat 1 42829U 17042E 26119.44124560 .00003510 00000-0 25319-3 0 9996 2 42829 97.4234 278.9803 0016135 259.0212 100.9200 15.04658258479376 AO-91 1 43017U 17073E 26119.57479398 .00009592 00000-0 42336-3 0 9990 2 43017 97.4781 347.8041 0154031 135.9878 225.3738 15.11823186458042 S-Net D 1 43186U 18014G 26119.83013557 .00005579 00000-0 29199-3 0 9996 2 43186 97.5404 24.9313 0008309 173.7801 186.3536 15.16211600451434 S-Net B 1 43187U 18014H 26119.70865105 .00004726 00000-0 24809-3 0 9993 2 43187 97.5409 24.7959 0009038 170.3890 189.7517 15.16180080451416 S-Net A 1 43188U 18014J 26119.69725713 .00005317 00000-0 27838-3 0 9994 2 43188 97.5418 24.9843 0008912 171.1969 188.9421 15.16216020451416 S-Net C 1 43189U 18014K 26119.71225919 .00004785 00000-0 25112-3 0 9992 2 43189 97.5436 25.0665 0010507 165.3500 194.8039 15.16171905449960 Ten-Koh 1 43677U 18084G 26119.51847165 .00002414 00000-0 18557-3 0 9994 2 43677 98.0792 309.8378 0007447 283.5894 76.4501 15.02732952408857 PO-101 1 43678U 18084H 26119.81730041 .00002888 00000-0 23583-3 0 9992 2 43678 98.1069 313.9651 0013000 336.8370 23.2265 15.00210983408961 QO-100 1 43700U 18090A 26119.85029108 .00000145 00000-0 00000 0 0 9993 2 43700 0.0146 260.4867 0001667 171.2002 118.0588 1.00276635 27193 MinXSS-2 1 43758U 18099A 26119.71878648 .00030881 00000-0 68259-3 0 9995 2 43758 97.4564 194.7013 0008758 88.0438 272.1812 15.43748187406649 AO-95 1 43770U 18099N 26119.69001084 .00011013 00000-0 43496-3 0 9990 2 43770 97.4424 180.1465 0009946 151.0823 209.0968 15.25644841405829 SNUSat 2 1 43782U 18099AA 26119.66440803 .00008177 00000-0 37020-3 0 9999 2 43782 97.4104 173.8115 0012155 105.5934 254.6644 15.21077202405656 SnugLite 1 43784U 18099AC 26119.63949016 .00011331 00000-0 44177-3 0 9995 2 43784 97.3911 174.4268 0004553 102.3404 257.8344 15.26100402405914 ITASat 1 1 43786U 18099AE 26119.85857821 .00007079 00000-0 34634-3 0 9994 2 43786 97.4071 172.3475 0013637 155.0406 205.1491 15.18422342405573 EAGLET 1 1 43790U 18099AJ 26119.10395419 .00004265 00000-0 24785-3 0 9997 2 43790 97.4276 170.0758 0012148 149.1201 211.0747 15.12554385404911 ESEO 1 43792U 18099AL 26119.81747056 .00001145 00000-0 86731-4 0 9999 2 43792 97.4013 159.2721 0013373 132.4781 227.7578 15.04093549404535 JO-97 1 43803U 18099AX 26119.72321225 .00016844 00000-0 54500-3 0 9998 2 43803 97.4168 182.4394 0007269 89.0259 271.1816 15.32100201406206 Suomi 100 1 43804U 18099AY 26119.41304364 .00010380 00000-0 39011-3 0 9999 2 43804 97.4230 180.0213 0011797 94.9588 265.2998 15.27290635405975 ISAT 1 43879U 18111D 26119.77082068 .00069787 00000-0 93369-3 0 9990 2 43879 97.5906 51.5748 0008806 108.6483 251.5729 15.57751234403616 UWE-4 1 43880U 18111E 26119.75646295 .00029815 00000-0 67150-3 0 9995 2 43880 97.5862 46.0324 0010183 128.1893 232.0273 15.43183960403305 Sparrow 1 43881U 18111F 26119.76547425 .00090928 00000-0 98086-3 0 9997 2 43881 97.6126 56.4818 0007068 125.3635 234.8284 15.63340527403784 Prox-1 1 44339U 19036A 26119.57175238 .00014669 00000-0 14750-2 0 9994 2 44339 23.9950 78.6929 0006587 188.5794 171.4593 14.89437647366213 Taurus 1 1 44530U 19059C 26119.77073707 .00005255 00000-0 85379-3 0 9999 2 44530 98.6371 281.6267 0009814 105.4663 254.7627 14.71554539351524 TO-108 1 44881U 19093C 26119.84750334 .00000933 00000-0 11152-3 0 9998 2 44881 97.7550 193.2569 0012081 244.1695 115.8276 14.86440438344236 RS-44 1 44909U 19096E 26119.76726122 .00000021 00000-0 48007-4 0 9999 2 44909 82.5259 11.8820 0216383 257.5643 100.1169 12.79747978296156 SALSAT 1 46495U 20068K 26119.53425572 .00008222 00000-0 29370-3 0 9994 2 46495 97.8855 119.6659 0011643 110.4415 249.8075 15.29067816307921 CSS (TIANHE-1) 1 48274U 21035A 26119.80387661 .00028989 00000-0 31039-3 0 9999 2 48274 41.4671 256.5685 0006704 298.3463 61.6700 15.63178569285601 CUTE 1 49263U 21088D 26119.76854056 .00069717 00000-0 46769-3 0 9998 2 49263 97.4201 215.1379 0000965 146.9074 213.2251 15.75030459254891 TeikyoSat 4 1 49396U 21102B 26119.79331451 .00001654 00000-0 10727-3 0 9995 2 49396 97.3710 151.1544 0013847 98.9969 261.2828 15.09331308245423 Z-Sat 1 49399U 21102E 26119.81636157 .00003890 00000-0 19442-3 0 9999 2 49399 97.3373 156.6098 0018310 59.6398 300.6643 15.17887742246101 KOSEN 1 1 49402U 21102H 26119.63304771 .00007256 00000-0 28283-3 0 9991 2 49402 97.3234 162.7467 0014306 26.8943 333.3034 15.26155982246610 HO-113 1 50466U 21131B 26119.87687068 .00000462 00000-0 15658-3 0 9998 2 50466 98.4953 212.5356 0003060 232.7951 127.2959 14.41309731228159 SNUGLITE 2 1 52899U 22065F 26119.85647427 .00001176 00000-0 23222-3 0 9999 2 52899 98.2133 264.7933 0007817 166.4207 193.7207 14.64253941203928 UmKA 1 (RS40S) 1 57172U 23091G 26119.85614897 .00006325 00000-0 29414-3 0 9993 2 57172 97.5090 178.7505 0011257 290.0405 69.9618 15.20266278156665 CubeBel-2 (EU11S) 1 57175U 23091K 26119.80657523 .00012672 00000-0 46557-3 0 9993 2 57175 97.5088 182.6270 0008414 286.7727 73.2589 15.28023814156916 RS-38S 1 57189U 23091Z 26119.84984714 .00017136 00000-0 51444-3 0 9998 2 57189 97.5122 188.4190 0006422 233.1350 126.9304 15.34493694157275 SONATE-2 1 59112U 24043Q 26119.35594964 .00032074 00000-0 47413-3 0 9993 2 59112 97.5476 266.9101 0006557 26.9838 333.1755 15.55243525120290 GRBBeta 1 60237U 24128C 26119.83108050 .00004398 00000-0 30563-3 0 9993 2 60237 61.9920 25.8715 0046728 124.4938 236.0581 15.06243745 98989 Curium One 1 60242U 24128H 26119.83067977 .00008566 00000-0 49987-3 0 9992 2 60242 61.9808 16.9417 0046299 120.9578 239.6079 15.11727526 99144 ROBUSTA-3A 1 60243U 24128J 26119.83516969 .00008715 00000-0 51929-3 0 9998 2 60243 61.9887 19.1337 0047404 118.3524 242.2363 15.10914286 99112 CatSat 1 60246U 24125J 26119.84191405 .00049567 00000-0 76590-3 0 9994 2 60246 97.2139 331.8958 0023184 5.7144 354.4370 15.53641402 99877 HYPERVIEW-1G (RS66S) 1 61772U 24199AP 26119.82060453 .00092850 00000-0 91186-3 0 9997 2 61772 97.2980 357.4830 0009188 97.9375 262.2928 15.65697478127083 AO-123 1 61781U 24199AY 26119.80451289 .00008278 00000-0 24553-3 0 9991 2 61781 97.3073 348.9203 0015677 119.3776 240.9035 15.34954983126501 JINJUSat 1B 1 63210U 25052A 26119.70389049 .00016010 00000-0 52035-3 0 9991 2 63210 97.4062 16.4383 0001308 235.4545 124.6573 15.31990125 62672 NUSHSAT 1 1 63211U 25052B 26119.68897183 .00020863 00000-0 63394-3 0 9993 2 63211 97.4041 16.8365 0000928 239.0156 121.0996 15.34085957 62704 TEVEL2-4 1 63213U 25052D 26119.70683263 .00018006 00000-0 56821-3 0 9993 2 63213 97.3965 16.0689 0000452 328.5870 31.5345 15.32911452 62686 TEVEL2-5 1 63214U 25052E 26119.65699582 .00017974 00000-0 56987-3 0 9995 2 63214 97.3960 15.9801 0000522 322.2848 37.8358 15.32761145 62674 TEVEL2-6 1 63215U 25052F 26119.66814803 .00018052 00000-0 57302-3 0 9992 2 63215 97.3963 15.9761 0000587 322.1460 37.9741 15.32723016 62675 TEVEL2-1 1 63217U 25052H 26119.68131179 .00016916 00000-0 54521-3 0 9991 2 63217 97.3937 15.6688 0001182 349.9545 10.1673 15.32247206 62664 TEVEL2-3 1 63218U 25052J 26119.67753660 .00017627 00000-0 56715-3 0 9993 2 63218 97.3940 15.6815 0001215 349.4432 10.6784 15.32293927 62667 TEVEL2-2 1 63219U 25052K 26119.68184078 .00016899 00000-0 54458-3 0 9998 2 63219 97.3938 15.6709 0001189 350.9818 9.1402 15.32252513 62668 TEVEL2-9 1 63237U 25052AD 26119.66420913 .00016399 00000-0 55947-3 0 9996 2 63237 97.4001 15.1281 0004874 331.9722 28.1256 15.30407955 62609 TEVEL2-7 1 63238U 25052AE 26119.69642243 .00015607 00000-0 53682-3 0 9997 2 63238 97.4004 15.0953 0004977 331.7228 28.3742 15.30151827 62607 TEVEL2-8 1 63239U 25052AF 26119.70412720 .00015703 00000-0 54043-3 0 9994 2 63239 97.4002 15.0815 0004965 333.1535 26.9448 15.30132933 62601 HYDRA-W 1 63490U 25052BL 26113.93882235 .05662091 24406-5 29537-2 0 9997 2 63490 97.3690 18.2798 0008685 203.5899 156.4993 16.20186780 62336 HADES-ICM (SO-125) 1 63492U 25052BN 26119.66658166 .00386861 00000-0 20355-2 0 9990 2 63492 97.3827 22.7029 0004291 152.0298 208.1200 15.79660278 63123 SPIRONE 1 66657U 25274H 26119.74629149 .00002862 00000-0 27803-3 0 9992 2 66657 97.7473 49.7412 0012384 167.9028 192.2491 14.93342579 22994 K-HERO 1 66660U 25274L 26119.69761845 .00002383 00000-0 22984-3 0 9993 2 66660 97.7480 49.8184 0014003 173.6167 186.5233 14.93776114 22997 SNUGLITE-III DURI 1 66661U 25274M 26119.75400678 .00002274 00000-0 21917-3 0 9999 2 66661 97.7478 49.8925 0014643 174.7342 185.4035 14.93836399 23008 SilverSat 1 66909U 98067XV 26113.44966717 .07226154 12288-4 11979-2 0 9998 2 66909 51.6027 190.0749 0007952 333.4666 26.5949 16.32457272 22308 SAKHACUBE-CHOLBON 1 67290U 25313AU 26119.71742536 .00009701 00000-0 40295-3 0 9992 2 67290 97.3952 195.3886 0010258 158.8780 201.2883 15.23978507 18598 RS95S (QMR-KWT-2) 1 67291U 25313AV 26119.74388948 .00014142 00000-0 56834-3 0 9990 2 67291 97.3951 195.5038 0010106 158.2367 201.9302 15.24995892 18608 Ten-Koh2 1 68261U 25241B 26119.60834402 .00006706 00000-0 29267-3 0 9991 2 68261 51.6488 190.7449 0005745 347.8546 12.2292 15.23270272 7500 JACK-002 1 68417U 26067B 26119.87768227 .00007660 00000-0 37150-3 0 9991 2 68417 97.4535 79.0996 0004151 88.9020 271.2690 15.18778061 4611 DISCO 2 1 68431U 26067R 26119.82087747 .00009272 00000-0 45445-3 0 9990 2 68431 97.4571 79.0377 0003547 128.6816 231.4736 15.18348850 4600 HADES-SA (SpinnyONE) 1 68446U 26067AG 26119.71283513 .00018774 00000-0 94000-3 0 9991 2 68446 97.4377 78.8070 0005094 230.3444 129.7341 15.17427972 4573 PARUS-6U1 1 68456U 26067AS 26119.84659758 .00006756 00000-0 34512-3 0 9993 2 68456 97.4519 78.9844 0004335 215.7728 144.3215 15.17003137 4601 SAL-E 1 68458U 26067AU 26119.84667047 .00009173 00000-0 46649-3 0 9995 2 68458 97.4445 78.9568 0004259 228.2117 131.8753 15.17059095 4602 IO-86 1 40931U 25360.30710720 .00000000 00000-0 12800-3 0 00 2 40931 6.0006 332.5373 0012733 338.8432 8.1437 14.79075515 01 LILIUM-4 1 71922C 26067AC 26089.50133053 -.00014632 00000 0 -74472-3 0 04 2 71922 97.4497 49.1617 0004341 5.9603 355.7042 15.16896692 16